7 * 24
多渠道服务支持
INTELSAT 4-F5,即国际通信卫星4-F5,是由国际通信卫星组织(ITSO)主导的国际通信卫星4系列第五颗卫星,于1972年6月13日发射入轨。该卫星由休斯空间与通信公司基于HS-312平台研制,发射质量1414千克,配置12路C频段转发器,设计寿命7年,运行在地球静止轨道,至今仍在轨运行,为全球跨洋通信、电视广播提供稳定支撑,是早期全球卫星通信网络的重要组成部分。
(ITSO)
| 数据来源 | 国际轨道数据 |
| 星历时间: | 2026-09-10T18:40:15+0800 1天前 查看轨道信息 |
| 半长轴: | 42205.51km |
| 偏心率: | 0.0004574 |
| 轨道倾角: | 5.526° |
| 近地点辐角 | 297.232° |
| 升交点赤经 | 286.003° |
| 平近点角 | 62.564° |
| 近地点: | 35808.068km |
| 远地点: | 35846.678km |
| 周期: | 1438.181分钟 |
| 每日圈数: | 1.001265 |